College Park, MD

4:54 AM EDT on April 23, 2017 (GMT -0400)
College Park

Weather History for KCGS - April, 2013

Change the Weather History Date:

Wednesday, April 10, 2013

  Actual Average Record
Temperature  
Mean Temperature 76 °F -  
Max Temperature 93 °F 61 °F 93 °F (2013)
Min Temperature 59 °F 40 °F 26 °F (1954)
Cooling Degree Days 11    
Growing Degree Days 26 (Base 50)    
Moisture  
Dew Point 55 °F    
Average Humidity 45    
Maximum Humidity 85    
Minimum Humidity 27    
Precipitation  
Precipitation 0.00 in - - ()
Sea Level Pressure  
Sea Level Pressure 29.89 in    
Wind  
Wind Speed 3 mph (SSW)    
Max Wind Speed 13 mph    
Max Gust Speed 18 mph    
Visibility 10 miles    
Events      
Averages and records for this station are not official NWS values.
T = Trace of Precipitation, MM = Missing Value Source: NWS Daily Summary

Daily Weather History Graph

Daily Weather History Graph

Search for Another Location

Airport or City:

Trip Planner

Search our weather history database for the weather conditions in past years. The results will help you decide how hot, cold, wet, or windy it might be!

Date:

Astronomy

Apr. 10, 2013 Rise Set
Actual Time 6:38 AM EDT 7:40 PM EDT
Civil Twilight 6:10 AM EDT 8:07 PM EDT
Nautical Twilight 5:38 AM EDT 8:40 PM EDT
Astronomical Twilight 5:04 AM EDT 9:14 PM EDT
Moon 6:33 AM EDT (4/10) 8:13 PM EDT (4/10)
Length of Visible Light 13h 56m
Length of Day
13h 02m
New Moon, 0% of the Moon is Illuminated
Apr 10
New Moon
Apr 18
First Quarter
Apr 25
Full
May 2
Last Quarter
May 9
New

Hourly Weather History & Observations

Time (EDT) Temp. Heat Index Dew Point Humidity Pressure Visibility Wind Dir Wind Speed Gust Speed Precip Events Conditions
12:00 AM 77.9 °F - 52.7 °F 41% 29.92 in 10.0 mi South 4.6 mph - N/A   Clear
12:20 AM 77.2 °F - 52.9 °F 43% 29.92 in 10.0 mi SSW 3.5 mph - N/A   Clear
12:40 AM 77.0 °F - 53.2 °F 44% 29.92 in 10.0 mi SSW 4.6 mph - N/A   Clear
1:00 AM 76.5 °F - 53.4 °F 45% 29.92 in 10.0 mi Calm Calm - N/A   Clear
1:20 AM 76.1 °F - 53.8 °F 46% 29.92 in 10.0 mi Calm Calm - N/A   Clear
1:40 AM 75.4 °F - 54.0 °F 47% 29.91 in 10.0 mi South 3.5 mph - N/A   Clear
2:00 AM 75.0 °F - 54.0 °F 48% 29.91 in 10.0 mi Calm Calm - N/A   Clear
2:20 AM 74.5 °F - 54.1 °F 49% 29.91 in 10.0 mi Calm Calm - N/A   Clear
2:40 AM 74.3 °F - 54.5 °F 50% 29.91 in 10.0 mi Calm Calm - N/A   Clear
3:00 AM 68.5 °F - 54.7 °F 61% 29.91 in 10.0 mi Calm Calm - N/A   Clear
3:20 AM 71.4 °F - 54.7 °F 55% 29.91 in 10.0 mi Calm Calm - N/A   Clear
3:40 AM 67.3 °F - 54.9 °F 64% 29.91 in 10.0 mi Calm Calm - N/A   Clear
4:00 AM 64.0 °F - 55.2 °F 73% 29.92 in 10.0 mi Calm Calm - N/A   Clear
4:20 AM 63.7 °F - 55.0 °F 73% 29.93 in 10.0 mi Calm Calm - N/A   Clear
4:40 AM 62.6 °F - 55.4 °F 77% 29.93 in 10.0 mi Calm Calm - N/A   Clear
5:00 AM 62.2 °F - 55.4 °F 78% 29.94 in 10.0 mi Calm Calm - N/A   Clear
5:20 AM 63.1 °F - 55.6 °F 76% 29.94 in 10.0 mi Calm Calm - N/A   Clear
5:40 AM 62.6 °F - 55.4 °F 77% 29.94 in 10.0 mi Calm Calm - N/A   Clear
6:00 AM 61.3 °F - 55.4 °F 81% 29.95 in 10.0 mi Calm Calm - N/A   Clear
6:20 AM 61.0 °F - 55.0 °F 81% 29.95 in 10.0 mi Calm Calm - N/A   Clear
6:40 AM 59.7 °F - 54.7 °F 83% 29.95 in 10.0 mi Calm Calm - N/A   Clear
7:00 AM 60.6 °F - 55.9 °F 85% 29.96 in 7.0 mi Calm Calm - N/A   Clear
7:20 AM 60.4 °F - 55.4 °F 83% 29.96 in 7.0 mi Calm Calm - N/A   Clear
7:40 AM 63.9 °F - 56.1 °F 76% 29.97 in 10.0 mi Calm Calm - N/A   Clear
8:00 AM 70.2 °F - 56.8 °F 63% 29.97 in 10.0 mi Calm Calm - N/A   Clear
8:20 AM 72.7 °F - 57.2 °F 58% 29.97 in 10.0 mi Calm Calm - N/A   Clear
8:40 AM 74.8 °F - 56.3 °F 52% 29.96 in 10.0 mi Calm Calm - N/A   Clear
9:00 AM 76.1 °F - 57.2 °F 52% 29.96 in 10.0 mi South 4.6 mph - N/A   Clear
9:20 AM 77.2 °F - 57.4 °F 50% 29.96 in 10.0 mi Calm Calm - N/A   Clear
9:40 AM 79.2 °F - 56.7 °F 46% 29.96 in 10.0 mi South 4.6 mph - N/A   Clear
10:00 AM 79.9 °F - 56.8 °F 45% 29.96 in 10.0 mi South 4.6 mph - N/A   Clear
11:00 AM 84.0 °F 83.0 °F 56.1 °F 38% 29.95 in 10.0 mi SSE 3.5 mph - N/A   Clear
11:20 AM 85.5 °F 84.3 °F 56.1 °F 37% 29.95 in 10.0 mi SW 5.8 mph - N/A   Clear
11:40 AM 87.1 °F 85.9 °F 56.8 °F 36% 29.94 in 10.0 mi West 4.6 mph - N/A   Clear
12:00 PM 86.9 °F 85.6 °F 56.7 °F 36% 29.94 in 10.0 mi SSW 8.1 mph 17.3 mph N/A   Clear
12:20 PM 87.3 °F 85.9 °F 56.7 °F 35% 29.94 in 10.0 mi SW 8.1 mph - N/A   Clear
12:40 PM 88.2 °F 86.9 °F 57.2 °F 35% 29.93 in 10.0 mi WSW 12.7 mph 16.1 mph N/A   Clear
1:00 PM 88.3 °F 86.9 °F 56.8 °F 34% 29.92 in 10.0 mi SW 6.9 mph 16.1 mph N/A   Clear
1:20 PM 89.1 °F 87.5 °F 56.8 °F 33% 29.92 in 10.0 mi SW 4.6 mph - N/A   Clear
1:40 PM 89.2 °F 87.7 °F 56.8 °F 33% 29.91 in 10.0 mi Calm Calm - N/A   Clear
2:00 PM 90.0 °F 88.3 °F 56.3 °F 32% 29.90 in 10.0 mi South 6.9 mph - N/A   Clear
2:20 PM 91.2 °F 89.9 °F 57.2 °F 32% 29.89 in 10.0 mi SW 8.1 mph 16.1 mph N/A   Clear
2:40 PM 91.9 °F 90.6 °F 57.4 °F 31% 29.88 in 10.0 mi West 8.1 mph - N/A   Clear
3:00 PM 91.6 °F 89.8 °F 55.9 °F 30% 29.88 in 10.0 mi SW 5.8 mph 16.1 mph N/A   Clear
3:20 PM 91.9 °F 90.3 °F 56.3 °F 30% 29.87 in 10.0 mi South 4.6 mph - N/A   Scattered Clouds
3:40 PM 92.3 °F 90.5 °F 55.8 °F 29% 29.86 in 10.0 mi SW 5.8 mph - N/A   Scattered Clouds
4:00 PM 93.2 °F 91.3 °F 55.6 °F 28% 29.84 in 10.0 mi South 10.4 mph 17.3 mph N/A   Scattered Clouds
4:20 PM 92.8 °F 90.6 °F 54.7 °F 27% 29.84 in 10.0 mi SW 5.8 mph 16.1 mph N/A   Clear
4:40 PM 92.5 °F 90.4 °F 55.0 °F 28% 29.84 in 10.0 mi South 9.2 mph 17.3 mph N/A   Scattered Clouds
5:00 PM 91.6 °F 89.6 °F 54.9 °F 29% 29.83 in 10.0 mi South 10.4 mph 17.3 mph N/A   Scattered Clouds
5:20 PM 91.8 °F 89.5 °F 54.5 °F 28% 29.83 in 10.0 mi South 8.1 mph - N/A   Scattered Clouds
5:40 PM 92.3 °F 89.9 °F 54.1 °F 27% 29.83 in 10.0 mi SSW 8.1 mph - N/A   Clear
6:00 PM 91.8 °F 89.5 °F 54.1 °F 28% 29.81 in 10.0 mi South 8.1 mph - N/A   Scattered Clouds
6:20 PM 90.9 °F 88.5 °F 53.8 °F 28% 29.80 in 10.0 mi South 12.7 mph 18.4 mph N/A   Scattered Clouds
6:40 PM 90.0 °F 87.7 °F 53.6 °F 29% 29.79 in 10.0 mi South 6.9 mph - N/A   Clear
7:00 PM 89.6 °F 87.3 °F 53.6 °F 29% 29.79 in 10.0 mi South 5.8 mph - N/A   Clear
7:20 PM 89.4 °F 87.1 °F 53.4 °F 29% 29.79 in 10.0 mi South 4.6 mph - N/A   Clear
7:45 PM 88.3 °F 86.1 °F 53.2 °F 30% 29.79 in 10.0 mi South 4.6 mph - N/A   Clear
8:05 PM 87.6 °F 85.5 °F 53.1 °F 31% 29.78 in 10.0 mi Calm Calm - N/A   Clear
8:25 PM 86.9 °F 84.8 °F 53.1 °F 31% 29.78 in 10.0 mi Calm Calm - N/A   Clear
8:45 PM 86.2 °F 84.2 °F 53.2 °F 32% 29.78 in 10.0 mi South 4.6 mph - N/A   Clear
9:05 PM 85.6 °F 83.8 °F 53.6 °F 33% 29.78 in 10.0 mi South 5.8 mph - N/A   Clear
9:25 PM 86.2 °F 84.5 °F 54.5 °F 34% 29.79 in 10.0 mi SSW 4.6 mph - N/A   Clear
9:45 PM 85.6 °F 84.1 °F 54.9 °F 35% 29.80 in 10.0 mi SSW 5.8 mph - N/A   Clear
10:05 PM 85.1 °F 83.8 °F 55.4 °F 36% 29.81 in 10.0 mi South 4.6 mph - N/A   Clear
10:25 PM 84.6 °F 83.2 °F 55.2 °F 36% 29.81 in 10.0 mi SSW 5.8 mph - N/A   Clear
10:45 PM 83.8 °F 82.7 °F 55.2 °F 37% 29.81 in 10.0 mi SSW 3.5 mph - N/A   Clear
11:05 PM 83.5 °F 82.5 °F 55.4 °F 38% 29.81 in 10.0 mi SSW 3.5 mph - N/A   Clear
11:25 PM 82.8 °F 82.0 °F 55.6 °F 39% 29.82 in 10.0 mi SSW 4.6 mph - N/A   Clear
11:45 PM 82.4 °F 81.8 °F 55.8 °F 40% 29.83 in 10.0 mi SSW 3.5 mph - N/A   Clear